DW1774 Weather Reports


time (UTC)temp
F
wind
direction
speed
knots
gust
knots
rain 1hr
in
rain 24hr
in
rain mn
in
humidity
%
barometer
mb
20260510234404 83 130 5.2 13.9 0.00 0.08 0.00 73 1012.8
20260510233905 83 136 4.3 10.4 0.00 0.08 0.00 73 1012.8
20260510232904 84 142 5.2 13.9 0.00 0.08 0.00 72 1012.9
20260510232405 84 133 7.0 13.9 0.00 0.08 0.00 72 1012.9
20260510231904 84 141 3.5 13.0 0.00 0.08 0.00 71 1012.9
20260510231404 85 141 5.2 10.4 0.00 0.08 0.00 71 1012.8
20260510230904 85 126 3.5 12.2 0.00 0.08 0.00 70 1012.8
20260510230404 85 122 4.3 12.2 0.00 0.08 0.00 70 1012.8
20260510225904 86 153 6.1 11.3 0.00 0.08 0.00 69 1012.9
20260510225404 86 156 2.6 10.4 0.00 0.08 0.00 69 1012.9
20260510224904 86 127 5.2 11.3 0.00 0.08 0.00 69 1013.0
20260510224405 87 137 4.3 11.3 0.00 0.08 0.00 68 1013.1
20260510223905 87 115 4.3 10.4 0.00 0.08 0.00 68 1013.1
20260510223404 88 111 3.5 10.4 0.00 0.08 0.00 67 1013.1
20260510222905 88 128 2.6 10.4 0.00 0.08 0.00 68 1013.1
20260510222404 88 124 6.1 11.3 0.00 0.08 0.00 66 1013.2
20260510221904 88 107 2.6 11.3 0.00 0.08 0.00 66 1013.3
20260510221404 88 126 4.3 11.3 0.00 0.08 0.00 66 1013.3
20260510220904 89 142 5.2 11.3 0.00 0.08 0.00 66 1013.4
20260510220404 89 89 4.3 10.4 0.00 0.08 0.00 65 1013.4
20260510215905 89 125 4.3 10.4 0.00 0.08 0.00 66 1013.4
20260510215404 89 125 1.7 11.3 0.00 0.08 0.00 66 1013.5
20260510214904 89 105 4.3 11.3 0.00 0.08 0.00 65 1013.5
20260510214404 89 129 1.7 13.0 0.00 0.08 0.00 67 1013.5
20260510213405 89 141 5.2 13.0 0.00 0.08 0.00 65 1013.4
20260510212905 90 141 4.3 8.7 0.00 0.08 0.00 64 1013.4
20260510211904 90 104 4.3 8.7 0.00 0.08 0.00 64 1013.4
20260510211405 90 134 1.7 10.4 0.00 0.08 0.00 66 1013.4
20260510210905 90 85 3.5 10.4 0.00 0.08 0.00 65 1013.3
20260510210404 90 127 7.0 10.4 0.00 0.08 0.00 64 1013.3
20260510205904 90 134 5.2 10.4 0.00 0.08 0.00 63 1013.3
20260510204905 91 134 5.2 10.4 0.00 0.08 0.00 63 1013.2
20260510204404 90 147 1.7 13.0 0.00 0.08 0.00 63 1013.0
20260510203404 89 159 6.1 11.3 0.00 0.08 0.00 63 1013.1
20260510202904 89 147 4.3 14.8 0.00 0.08 0.00 65 1013.0
20260510202403 89 130 7.8 14.8 0.00 0.08 0.00 63 1013.0
20260510200904 91 134 6.1 14.8 0.00 0.08 0.00 60 1012.8
20260510200404 91 157 2.6 13.0 0.00 0.08 0.00 62 1012.8
20260510195904 91 158 7.0 13.0 0.00 0.08 0.00 60 1012.8
20260510195405 91 130 3.5 12.2 0.00 0.08 0.00 64 1012.8
20260510194904 91 146 6.1 12.2 0.00 0.08 0.00 62 1012.8
20260510194404 90 140 3.5 13.0 0.00 0.08 0.00 64 1012.8
20260510193904 89 136 4.3 13.0 0.00 0.08 0.00 62 1012.7
20260510192905 89 159 7.0 14.8 0.00 0.08 0.00 60 1012.8
20260510192404 89 158 5.2 11.3 0.00 0.08 0.00 62 1012.8
20260510191405 89 128 2.6 11.3 0.00 0.08 0.00 63 1012.8
20260510190904 90 125 6.1 13.9 0.00 0.08 0.00 63 1012.8
20260510185904 90 85 3.5 12.2 0.00 0.08 0.00 62 1013.0
20260510185404 90 101 6.1 12.2 0.00 0.08 0.00 62 1013.1
20260510184904 90 121 5.2 11.3 0.00 0.08 0.00 62 1013.1
20260510183904 90 142 2.6 10.4 0.00 0.08 0.00 64 1013.3
20260510183404 90 125 2.6 11.3 0.00 0.08 0.00 62 1013.4
20260510182904 90 165 2.6 11.3 0.00 0.08 0.00 62 1013.5
20260510182405 90 141 2.6 8.7 0.00 0.08 0.00 65 1013.6
20260510181905 90 156 4.3 10.4 0.00 0.08 0.00 63 1013.5
20260510181405 90 65 3.5 10.4 0.00 0.08 0.00 64 1013.5
20260510180904 90 78 3.5 7.8 0.00 0.08 0.00 63 1013.5
20260510180404 90 141 3.5 10.4 0.00 0.08 0.00 64 1013.6
20260510175904 90 148 2.6 11.3 0.00 0.08 0.00 63 1013.6
20260510175404 90 137 6.1 11.3 0.00 0.08 0.00 64 1013.6
20260510174904 89 148 6.1 10.4 0.00 0.08 0.00 65 1013.7
20260510174404 89 147 4.3 12.2 0.00 0.08 0.00 65 1013.7
20260510173904 89 131 2.6 12.2 0.00 0.08 0.00 66 1013.8
20260510173404 89 146 4.3 7.8 0.00 0.08 0.00 65 1013.8
20260510172904 89 153 3.5 8.7 0.00 0.08 0.00 65 1013.8
20260510172404 89 118 2.6 12.2 0.00 0.08 0.00 65 1013.8
20260510171905 89 144 4.3 12.2 0.00 0.08 0.00 64 1013.9
20260510171404 90 119 2.6 8.7 0.00 0.08 0.00 66 1013.9
20260510170904 89 153 2.6 7.0 0.00 0.08 0.00 67 1014.0
20260510165904 88 98 4.3 10.4 0.00 0.08 0.00 65 1014.1
20260510165404 88 96 2.6 10.4 0.00 0.08 0.00 66 1014.1
20260510164904 88 178 5.2 10.4 0.00 0.08 0.00 67 1014.1
20260510164405 88 130 4.3 11.3 0.00 0.08 0.00 67 1014.2
20260510163904 87 155 6.1 11.3 0.00 0.08 0.00 66 1014.2
20260510163405 88 143 4.3 10.4 0.00 0.08 0.00 68 1014.2
20260510162904 87 154 2.6 8.7 0.00 0.08 0.00 69 1014.2
20260510161904 87 144 5.2 10.4 0.00 0.08 0.00 70 1014.2
20260510161404 87 151 1.7 7.8 0.00 0.08 0.00 70 1014.1
20260510160904 87 144 3.5 7.8 0.00 0.08 0.00 71 1014.3
20260510160405 86 142 1.7 7.0 0.00 0.08 0.00 71 1014.3
20260510155904 86 132 1.7 10.4 0.00 0.08 0.00 73 1014.3
20260510155404 86 138 4.3 10.4 0.00 0.08 0.00 73 1014.5
20260510154904 85 105 2.6 8.7 0.00 0.08 0.00 74 1014.5
20260510153904 84 150 1.7 7.8 0.00 0.08 0.00 75 1014.6
20260510153404 84 169 3.5 7.8 0.00 0.08 0.00 76 1014.7
20260510152904 84 136 4.3 7.0 0.00 0.08 0.00 76 1014.7
20260510152405 84 134 2.6 7.8 0.00 0.08 0.00 75 1014.6
20260510151905 84 148 2.6 8.7 0.00 0.08 0.00 74 1014.6
20260510151403 85 150 4.3 8.7 0.00 0.08 0.00 74 1014.6
20260510145904 84 147 2.6 7.0 0.00 0.08 0.00 75 1014.5
20260510145405 84 135 1.7 6.1 0.00 0.08 0.00 77 1014.4
20260510144904 84 147 1.7 7.8 0.00 0.08 0.00 76 1014.5
20260510144404 84 158 2.6 7.8 0.00 0.08 0.00 77 1014.5
20260510143904 84 135 2.6 4.3 0.00 0.08 0.00 78 1014.5
20260510143404 83 175 1.7 8.7 0.00 0.08 0.00 80 1014.5
20260510142904 82 97 2.6 8.7 0.00 0.08 0.00 81 1014.6
20260510142404 82 141 1.7 4.3 0.00 0.08 0.00 82 1014.5
20260510141903 81 128 1.7 4.3 0.00 0.08 0.00 84 1014.5
20260510141404 81 72 1.7 4.3 0.00 0.08 0.00 84 1014.4
20260510140904 80 71 1.7 4.3 0.00 0.08 0.00 84 1014.4
20260510140404 80 67 2.6 5.2 0.00 0.08 0.00 86 1014.5
20260510135904 80 353 1.7 5.2 0.00 0.08 0.00 87 1014.3
20260510135404 80 9 1.7 5.2 0.00 0.08 0.00 88 1014.3
20260510134903 79 29 0.9 4.3 0.00 0.08 0.00 89 1014.2
20260510133904 78 160 0.0 0.0 0.00 0.08 0.00 90 1014.1
20260510133404 78 160 0.0 0.0 0.00 0.08 0.00 90 1014.1
20260510132904 78 160 0.0 0.0 0.00 0.08 0.00 90 1014.0
20260510132405 77 160 0.0 0.0 0.00 0.08 0.00 90 1013.9
20260510131905 77 160 0.0 1.7 0.00 0.08 0.00 90 1013.7
20260510130904 77 160 0.0 1.7 0.00 0.08 0.00 90 1013.5
20260510130405 77 160 0.9 1.7 0.00 0.08 0.00 90 1013.4
20260510125404 76 160 0.9 1.7 0.00 0.08 0.00 90 1013.2
20260510124905 76 160 0.9 0.9 0.00 0.08 0.00 90 1013.1
20260510124405 76 160 0.0 1.7 0.00 0.08 0.00 90 1013.0
20260510123404 76 160 0.0 1.7 0.00 0.08 0.00 90 1012.9
20260510122904 76 160 0.0 1.7 0.00 0.08 0.00 90 1012.8
20260510122405 76 160 0.0 0.0 0.00 0.08 0.00 90 1012.7
20260510121903 76 160 0.0 0.0 0.00 0.08 0.00 90 1012.6
20260510120905 76 160 0.0 1.7 0.00 0.08 0.00 90 1012.5
20260510120404 76 160 0.0 1.7 0.00 0.08 0.00 90 1012.3
20260510115405 76 160 0.0 1.7 0.00 0.08 0.00 90 1012.1
20260510113904 76 160 1.7 4.3 0.00 0.08 0.00 90 1011.8
20260510113404 76 186 0.0 2.6 0.00 0.08 0.00 90 1011.7
20260510112904 76 187 0.0 2.6 0.00 0.08 0.00 90 1011.6
20260510112404 76 187 0.9 2.6 0.00 0.08 0.00 90 1011.6
20260510111904 76 187 1.7 5.2 0.00 0.08 0.00 90 1011.5
20260510111404 75 190 1.7 5.2 0.00 0.08 0.00 90 1011.6
20260510110903 75 135 0.0 5.2 0.00 0.08 0.00 90 1011.5
20260510110404 75 175 0.9 4.3 0.00 0.08 0.00 90 1011.4
20260510105904 75 175 0.9 4.3 0.00 0.08 0.00 90 1011.4
20260510105405 75 173 1.7 4.3 0.00 0.08 0.00 90 1011.3
20260510104904 75 173 0.9 2.6 0.00 0.08 0.00 90 1011.2
20260510104404 75 173 1.7 2.6 0.00 0.08 0.00 90 1011.1
20260510103904 75 161 1.7 5.2 0.00 0.08 0.00 90 1011.1
20260510103404 75 181 1.7 5.2 0.00 0.08 0.00 90 1011.0
20260510102904 75 192 2.6 5.2 0.00 0.08 0.00 90 1010.9
20260510102404 75 184 0.9 5.2 0.00 0.08 0.00 90 1010.9
20260510101905 75 160 1.7 5.2 0.00 0.08 0.00 90 1010.9
20260510101404 75 163 1.7 5.2 0.00 0.08 0.00 90 1010.8
20260510100905 75 179 2.6 7.0 0.00 0.08 0.00 90 1010.7
20260510100405 75 187 0.9 7.0 0.00 0.08 0.00 90 1010.8
20260510095403 75 182 1.7 7.0 0.00 0.08 0.00 90 1010.8
20260510094904 75 181 0.9 7.0 0.00 0.08 0.00 90 1010.8
20260510094405 75 189 2.6 6.1 0.00 0.08 0.00 90 1010.8
20260510093904 75 197 1.7 5.2 0.00 0.08 0.00 90 1010.8
20260510092905 75 184 1.7 4.3 0.00 0.08 0.00 90 1010.8
20260510092404 75 159 1.7 4.3 0.00 0.08 0.00 90 1010.8
20260510091404 75 178 0.9 2.6 0.00 0.08 0.00 90 1011.0
20260510090904 74 178 0.9 2.6 0.00 0.08 0.00 90 1010.9
20260510090405 74 171 0.9 1.7 0.00 0.08 0.00 89 1010.9
20260510085904 74 171 0.0 2.6 0.00 0.08 0.00 89 1010.8
20260510085404 74 171 0.9 2.6 0.00 0.08 0.00 89 1010.8
20260510084904 74 169 1.7 2.6 0.00 0.08 0.00 89 1010.9
20260510083404 74 164 0.9 2.6 0.00 0.08 0.00 89 1010.8
20260510082904 74 164 0.0 2.6 0.00 0.08 0.00 89 1010.8
20260510082405 74 164 0.9 2.6 0.00 0.08 0.00 89 1010.8
20260510081904 74 152 0.9 2.6 0.00 0.08 0.00 89 1010.7
20260510081404 74 152 0.9 2.6 0.00 0.08 0.00 89 1010.7
20260510080904 74 152 0.0 1.7 0.00 0.08 0.00 89 1010.7
20260510080405 74 152 0.0 0.9 0.00 0.08 0.00 89 1010.8
20260510075904 74 152 0.0 1.7 0.00 0.08 0.00 89 1010.6
20260510075405 74 152 0.0 1.7 0.00 0.08 0.00 89 1010.7
20260510074905 74 152 0.0 1.7 0.00 0.08 0.00 89 1010.7
20260510074404 74 152 0.9 1.7 0.00 0.08 0.00 89 1010.6
20260510073904 74 152 0.0 4.3 0.00 0.08 0.00 89 1010.7
20260510073404 74 151 0.0 6.1 0.00 0.08 0.00 88 1010.7
20260510072904 74 177 0.9 6.1 0.00 0.08 0.00 88 1010.7
20260510072404 74 177 1.7 6.1 0.00 0.08 0.00 88 1010.6
20260510071904 74 181 0.9 4.3 0.00 0.08 0.00 88 1010.6
20260510071404 74 179 1.7 4.3 0.00 0.08 0.00 88 1010.5
20260510070404 74 177 1.7 5.2 0.00 0.08 0.00 88 1010.6
20260510065904 74 164 1.7 7.0 0.00 0.08 0.00 88 1010.7
20260510065405 74 175 1.7 7.0 0.00 0.08 0.00 88 1010.7
20260510064904 75 186 1.7 7.8 0.00 0.08 0.00 88 1010.7
20260510064404 75 184 2.6 7.8 0.00 0.08 0.00 88 1010.7
20260510063904 75 172 2.6 7.0 0.00 0.08 0.00 88 1010.7
20260510063405 75 162 2.6 7.0 0.00 0.08 0.00 88 1010.7
20260510062904 75 170 1.7 5.2 0.00 0.08 0.00 88 1010.7
20260510062405 75 173 2.6 5.2 0.00 0.08 0.00 88 1010.8
20260510061905 75 168 0.9 2.6 0.00 0.08 0.00 88 1010.9
20260510061404 75 167 1.7 6.1 0.00 0.08 0.00 88 1010.9
20260510060404 75 151 1.7 6.1 0.00 0.08 0.00 88 1011.1
20260510055904 75 157 1.7 4.3 0.00 0.08 0.00 88 1011.1
20260510055405 75 161 1.7 7.0 0.00 0.08 0.00 88 1011.1
20260510054904 76 164 1.7 7.0 0.00 0.08 0.00 88 1011.2
20260510054404 76 167 2.6 11.3 0.00 0.08 0.00 88 1011.1
20260510053904 76 186 2.6 11.3 0.00 0.08 0.00 88 1011.1
20260510053405 76 170 4.3 8.7 0.00 0.08 0.00 88 1011.1
20260510052904 76 149 1.7 8.7 0.00 0.08 0.00 88 1011.1
20260510052404 76 162 2.6 8.7 0.00 0.08 0.00 88 1011.2
20260510051904 76 166 4.3 10.4 0.00 0.08 0.00 88 1011.2
20260510051404 76 160 2.6 10.4 0.00 0.08 0.00 88 1011.2
20260510050904 76 154 2.6 11.3 0.00 0.08 0.00 88 1011.3
20260510050404 76 169 4.3 11.3 0.00 0.08 0.00 88 1011.3
20260510045904 76 151 4.3 10.4 0.00 0.08 0.08 89 1011.4
20260510045404 76 120 4.3 10.4 0.00 0.08 0.08 88 1011.5
20260510044905 76 137 3.5 8.7 0.00 0.08 0.08 88 1011.5
20260510044404 76 127 3.5 8.7 0.00 0.08 0.08 88 1011.7
20260510043904 76 141 3.5 12.2 0.00 0.08 0.08 88 1011.7
20260510043405 76 117 2.6 12.2 0.01 0.08 0.08 88 1011.7
20260510042904 76 131 4.3 13.0 0.01 0.08 0.08 88 1011.9
20260510042404 77 134 4.3 13.0 0.03 0.08 0.08 88 1012.0
20260510040905 77 134 2.6 10.4 0.08 0.08 0.08 88 1012.1
20260510040404 77 137 4.3 10.4 0.08 0.08 0.08 88 1012.1
20260510035905 77 107 1.7 7.0 0.08 0.08 0.08 87 1012.1
20260510035403 77 92 1.7 6.1 0.08 0.08 0.08 87 1012.0
20260510034904 77 85 0.9 2.6 0.08 0.08 0.08 87 1012.0
20260510034404 77 129 0.0 2.6 0.08 0.08 0.08 86 1011.9
20260510033905 77 80 0.9 6.1 0.08 0.08 0.08 86 1011.8
20260510033404 78 148 0.9 8.7 0.07 0.07 0.07 86 1011.6
20260510032404 78 143 1.7 6.1 0.05 0.05 0.05 86 1011.5
20260510031905 78 158 1.7 6.1 0.00 0.00 0.00 85 1011.8
20260510030904 78 80 1.7 8.7 0.00 0.00 0.00 85 1011.9
20260510030405 78 76 3.5 8.7 0.00 0.00 0.00 85 1011.9
20260510025904 79 62 3.5 13.0 0.00 0.00 0.00 85 1011.9
20260510025405 79 67 1.7 13.0 0.00 0.00 0.00 84 1011.7
20260510024904 79 99 2.6 13.0 0.00 0.00 0.00 84 1011.6
20260510024405 79 120 2.6 11.3 0.00 0.00 0.00 84 1011.4
20260510023904 79 140 4.3 11.3 0.00 0.00 0.00 84 1011.3
20260510023404 79 98 2.6 7.0 0.00 0.00 0.00 84 1011.2
20260510022904 79 98 2.6 7.0 0.00 0.00 0.00 83 1011.1
20260510022403 79 124 2.6 10.4 0.00 0.00 0.00 83 1011.1
20260510021904 79 135 3.5 10.4 0.00 0.00 0.00 82 1011.1
20260510020905 80 145 3.5 10.4 0.00 0.00 0.00 81 1010.7
20260510020405 80 139 3.5 10.4 0.00 0.00 0.00 80 1010.6
20260510015905 80 145 4.3 12.2 0.00 0.00 0.00 80 1010.3
20260510015404 80 149 4.3 12.2 0.00 0.00 0.00 79 1009.9
20260510014904 81 141 5.2 12.2 0.00 0.00 0.00 77 1009.8
20260510014404 81 160 3.5 10.4 0.00 0.00 0.00 75 1009.8
20260510013404 82 171 2.6 7.8 0.00 0.00 0.00 74 1009.6
20260510012904 82 173 3.5 7.8 0.00 0.00 0.00 71 1009.6
20260510012403 82 174 2.6 8.7 0.00 0.00 0.00 69 1009.4
20260510011904 82 174 2.6 10.4 0.00 0.00 0.00 69 1009.2
20260510011404 82 182 4.3 10.4 0.00 0.00 0.00 69 1008.9
20260510010904 82 156 5.2 8.7 0.00 0.00 0.00 69 1008.8
20260510010405 83 148 2.6 10.4 0.00 0.00 0.00 69 1008.7
20260510005904 83 145 2.6 10.4 0.00 0.00 0.00 70 1008.6
20260510005404 83 145 4.3 10.4 0.00 0.00 0.00 70 1008.6
20260510004404 84 152 2.6 10.4 0.00 0.00 0.00 70 1008.5
20260510003904 84 150 3.5 10.4 0.00 0.00 0.00 69 1008.4
20260510003405 84 148 1.7 6.1 0.00 0.00 0.00 67 1008.4
20260510002905 84 148 3.5 6.1 0.00 0.00 0.00 66 1008.5
20260510002403 84 148 3.5 6.1 0.00 0.00 0.00 65 1008.4
20260510001404 85 148 2.6 7.8 0.00 0.00 0.00 64 1008.4
20260510000405 86 148 0.9 6.1 0.00 0.00 0.00 64 1008.2
20260509235404 86 148 1.7 6.1 0.00 0.00 0.00 63 1008.1
20260509234903 87 148 0.9 7.0 0.00 0.00 0.00 63 1008.0